Wind_Speed
22 22 23 23 24 25 25 23 23 23 22 20 18 18 17 15 13 10 11 10 10 4 9 17 14 13 10 5 7 4 5 1 2 4 4 4 4 4 3 6 7 4 4 3 2 6 7 25 18 8 7 3 8 5
22 22 23 23 24 24 23 23 24 25 24 21 20 20 18 16 14 11 8 8 11 3 6 23 24 28 23 24 7 4 4 3 2 2 1 4 3 3 2 4 10 7 5 6 6 5 11 19 9 8 7 9 4 7
21 23 24 24 24 24 25 25 26 26 26 23 22 21 19 18 16 13 14 15 11 3 7 7 9 22 23 32 34 8 6 6 5 3 1 3 7 3 4 5 4 7 4 3 5 2 12 19 19 13 11 12 9 9
22 23 25 25 24 25 26 26 27 30 31 27 25 24 21 19 17 15 15 16 10 3 4 6 10 17 21 21 25 38 24 2 3 2 3 3 4 6 1 3 4 2 6 4 2 5 11 12 17 9 9 13 15 13
24 25 25 26 27 29 30 33 35 36 35 33 27 25 23 20 18 18 23 21 18 4 3 7 24 15 10 12 21 25 23 16 3 3 3 4 3 5 2 4 2 2 2 5 3 4 3 5 13 10 12 13 11 12
26 26 27 29 30 32 35 36 36 37 37 36 30 25 21 16 12 9 3 6 10 10 3 4 5 6 15 11 6 8 12 7 5 4 4 3 4 3 3 1 3 4 3 1 6 4 3 3 17 18 16 16 14 13
26 27 29 31 33 36 40 38 37 41 41 35 31 22 18 12 8 5 5 3 13 3 2 4 4 5 9 5 0 2 6 3 4 3 2 3 3 2 3 2 6 7 4 12 10 6 7 14 7 15 17 15 13 13
26 28 30 34 36 39 42 38 41 46 42 36 28 21 16 13 10 11 23 18 23 4 2 3 4 3 4 4 4 3 3 3 1 2 2 2 4 2 2 8 9 7 14 13 12 8 2 3 11 15 16 18 17 14
29 31 33 35 38 41 41 39 44 45 42 25 22 16 2 5 4 4 7 4 12 3 2 2 2 3 5 1 1 2 2 2 1 2 1 2 3 2 5 7 7 12 8 10 12 10 8 12 11 12 17 16 10 10
32 33 34 36 38 40 40 39 43 41 33 22 8 2 2 3 6 4 2 1 1 2 3 3 2 3 2 1 2 1 0 2 0 2 3 2 3 6 10 8 9 12 12 12 12 9 9 7 7 7 6 7 3 6
33 34 35 36 38 40 34 39 38 36 16 10 6 2 10 4 2 1 1 3 3 3 3 3 5 3 2 2 2 0 2 3 2 2 2 4 5 7 9 11 8 9 9 9 8 7 5 2 3 7 8 7 5 6
33 34 35 36 35 32 35 37 34 25 17 14 16 13 6 3 3 2 1 1 3 3 3 3 4 5 2 1 3 2 2 1 3 1 2 3 4 10 11 11 12 11 10 7 4 3 3 1 1 3 2 1 1 3
32 33 33 33 30 27 36 35 29 21 22 4 3 3 3 4 6 5 6 3 6 3 3 3 0 2 3 2 2 2 2 3 2 3 2 3 4 5 7 5 4 5 6 5 4 4 8 3 11 5 5 6 5 7
30 31 32 29 21 34 35 31 22 19 4 2 4 8 4 6 5 4 10 8 8 4 5 2 2 1 1 2 2 5 5 4 4 5 7 7 7 3 1 4 3 3 4 2 5 7 10 8 8 14 15 13 12 9
28 29 25 14 31 33 27 20 21 8 2 3 5 6 5 6 6 11 11 10 12 10 3 2 3 3 5 5 5 5 5 5 5 5 6 8 10 8 6 3 6 9 8 9 6 7 7 9 9 9 12 12 17 16
26 20 6 23 29 22 17 19 7 3 2 2 1 3 7 6 9 11 12 12 13 12 3 4 5 5 9 4 6 7 3 5 4 3 4 5 8 8 9 9 9 9 10 10 14 19 18 19 14 13 21 19 19 21
19 5 20 24 27 14 12 8 4 2 3 5 4 3 3 3 5 8 10 9 7 10 11 4 7 8 3 4 5 4 6 6 5 4 4 4 4 2 4 7 8 11 12 18 19 21 21 24 27 24 14 20 22 24
7 19 17 20 26 14 9 5 3 3 5 3 4 7 5 3 6 7 11 13 7 7 5 5 4 8 6 5 6 2 3 3 3 4 5 5 6 7 10 7 13 16 16 18 20 21 24 23 16 11 21 21 22 22
19 15 15 20 17 7 4 5 4 3 3 2 2 3 3 3 5 10 10 12 14 9 4 4 7 5 5 4 4 4 4 3 3 3 4 7 12 9 13 14 16 17 17 16 17 15 20 25 21 21 22 25 17 21
9 9 17 15 9 5 5 5 7 4 3 2 2 4 4 4 5 7 9 10 6 5 9 5 5 2 3 3 2 2 3 4 5 8 8 10 17 14 8 10 10 18 20 21 23 25 22 22 28 27 24 26 21 18
6 12 11 8 3 2 1 1 3 2 1 1 2 2 3 3 6 7 7 5 7 6 4 3 2 2 4 7 17 19 15 11 5 3 2 5 14 21 21 22 24 23 18 15 12 16 23 19 25 28 26 23 22 25
5 9 5 3 2 3 1 2 3 2 2 2 1 2 2 3 3 3 3 8 7 4 4 4 3 3 7 9 12 19 19 23 22 24 26 18 7 8 13 18 19 13 17 18 20 16 20 24 27 29 26 20 20 21
7 5 3 2 2 3 5 1 0 2 1 2 3 4 3 3 2 4 4 4 3 4 10 8 12 14 9 19 25 25 26 23 17 19 20 16 20 19 19 21 21 18 15 19 21 21 21 26 27 24 23 23 20 12
3 2 3 2 2 3 2 2 2 1 1 2 4 3 2 2 4 3 3 2 3 10 8 13 16 6 11 13 5 13 18 21 19 23 25 14 12 15 19 19 21 23 20 22 22 22 23 23 24 25 25 21 21 22
3 2 3 4 2 5 3 4 2 4 3 2 3 2 1 2 2 3 1 3 4 4 4 13 13 8 3 4 9 17 25 23 16 13 22 21 17 17 19 22 25 24 20 23 20 20 21 22 22 21 20 20 17 17
4 3 3 3 2 3 4 4 3 2 1 2 3 3 2 2 3 2 2 2 3 2 4 4 4 4 5 11 5 11 17 20 25 17 18 22 22 16 10 5 9 17 19 18 15 18 18 18 21 20 20 21 22 18
3 3 2 1 1 1 3 3 3 4 5 5 3 2 3 3 3 3 3 5 2 7 15 13 12 13 9 13 18 17 20 24 21 17 16 20 24 24 22 17 14 18 16 13 11 14 14 14 16 17 16 20 21 19
3 1 2 1 2 3 3 4 4 4 3 4 3 5 2 2 3 3 3 9 11 10 8 19 18 18 18 18 17 16 17 18 21 16 13 16 18 21 21 20 20 19 22 10 12 12 11 14 15 16 16 16 15 15
3 3 3 4 3 1 2 2 2 1 2 1 3 2 3 2 3 3 5 9 15 14 10 11 13 15 18 20 18 16 16 19 18 7 7 4 8 18 21 20 21 23 24 16 16 17 14 14 13 13 12 12 14 15
4 5 4 3 3 3 3 4 3 2 2 4 5 2 1 2 5 5 5 9 12 13 15 14 12 14 14 17 16 16 14 15 16 11 3 4 8 15 19 19 20 20 20 17 11 13 12 11 12 13 13 15 17 17
4 5 3 3 2 3 5 7 11 7 4 2 2 3 4 3 3 2 9 13 15 15 15 14 15 14 14 12 8 13 8 8 10 12 9 8 8 10 14 15 15 16 17 18 9 10 11 12 15 15 15 16 16 17
3 3 2 3 2 3 4 4 5 4 3 3 2 2 1 2 2 2 4 12 13 12 12 13 12 11 11 9 8 6 6 8 7 7 7 6 7 8 9 13 14 17 18 19 18 15 15 13 13 14 13 14 15 18
2 1 1 3 3 4 4 4 4 2 2 3 3 4 5 5 2 3 6 6 12 11 11 12 12 12 10 9 9 3 3 1 4 3 4 5 5 6 6 7 12 13 15 14 15 15 15 13 12 12 12 13 15 17
Wind_Direction
349 349 351 350 349 348 347 344 344 345 343 338 334 330 324 321 322 328 282 270 235 260 268 262 246 260 268 232 260 293 326 302 293 220 241 214 218 249 254 279 156 118 148 133 280 262 259 343 316 157 169 112 129 108
344 343 343 343 344 346 341 343 344 344 341 336 332 328 326 322 316 308 277 303 281 247 256 285 264 255 237 232 244 224 255 229 222 282 310 306 289 251 261 246 151 168 208 165 156 241 319 307 306 11 93 114 68 95
342 343 343 342 343 339 340 340 339 336 333 329 327 323 317 314 313 311 288 300 291 259 275 256 238 266 262 244 233 241 248 216 180 188 16 285 263 299 224 223 190 172 169 157 55 106 346 358 350 358 42 74 77 83
340 341 341 341 339 339 337 335 333 336 337 324 315 312 311 307 304 304 289 282 275 262 276 277 260 269 271 258 223 210 223 286 127 188 160 240 256 269 288 268 234 176 134 117 346 350 311 342 352 330 23 59 61 54
332 333 334 336 336 335 331 329 327 327 328 324 319 312 307 305 301 296 293 278 257 208 269 290 304 269 285 299 218 208 220 232 201 224 201 249 239 263 249 242 197 343 152 147 99 285 277 339 357 18 40 46 41 62
328 329 331 331 332 334 332 332 332 332 331 327 318 313 306 297 299 311 309 224 201 194 278 292 291 284 297 304 204 197 218 209 207 203 236 261 253 280 242 302 265 256 206 241 109 202 199 115 47 37 47 40 48 51
326 329 332 330 332 333 333 334 333 334 332 328 322 309 295 287 243 191 221 238 182 347 257 283 281 272 298 295 231 138 176 174 170 214 266 277 286 268 306 305 334 333 124 162 153 188 57 41 60 50 48 33 29 51
327 328 331 329 331 333 335 334 336 336 331 330 322 307 297 270 264 253 271 256 231 236 239 282 277 293 6 358 358 5 133 105 62 256 239 258 291 265 320 322 343 34 81 80 84 84 95 124 60 70 58 45 21 19
326 326 329 330 330 333 335 335 339 337 336 338 315 306 103 172 201 237 240 186 170 204 271 239 270 294 357 0 263 318 16 56 185 242 353 321 296 310 337 8 358 68 55 95 76 70 63 73 69 51 65 70 14 0
321 324 327 330 329 331 334 338 341 339 342 342 339 345 326 244 258 208 148 179 147 182 212 235 247 261 302 277 61 353 196 164 335 324 295 347 343 330 20 35 34 62 50 55 79 55 43 51 63 58 59 77 36 328
318 321 325 328 329 330 334 340 343 342 340 357 356 324 322 317 266 207 1 11 351 259 204 226 222 234 216 241 204 81 86 21 42 344 30 10 5 9 16 33 22 70 76 68 57 50 25 38 62 78 44 41 17 352
317 321 324 326 329 330 333 341 345 342 326 310 290 296 278 276 278 305 22 312 254 263 232 215 221 189 217 325 29 59 88 200 46 61 57 40 9 357 14 20 20 23 33 35 16 16 342 323 8 35 69 174 96 16
319 321 323 325 328 331 333 339 341 336 334 319 326 294 23 328 7 336 317 298 303 224 251 265 89 134 146 142 180 212 62 59 13 40 51 216 268 285 292 298 340 332 322 333 332 275 264 257 217 208 106 75 44 4
322 322 323 325 329 333 333 337 336 340 337 10 344 337 50 317 341 315 313 311 312 243 303 250 126 140 129 109 6 44 29 21 38 29 29 22 14 328 329 318 314 38 20 306 293 76 60 56 56 56 61 65 69 50
326 324 325 332 334 330 330 334 332 337 351 1 32 9 344 304 306 325 340 346 359 354 356 29 40 49 20 45 18 16 35 37 31 345 23 7 25 27 9 360 54 47 43 32 40 51 45 41 45 48 68 59 55 52
330 330 342 331 331 337 332 340 2 339 291 42 99 48 330 320 337 354 359 2 350 351 13 38 37 34 39 32 18 22 34 23 3 354 343 346 1 25 18 45 36 36 30 27 49 52 51 49 45 35 34 38 49 51
334 324 336 340 341 339 345 353 336 300 55 22 345 335 294 301 314 353 2 349 327 22 31 36 40 30 348 23 30 21 21 28 355 9 340 19 87 258 329 60 54 31 52 54 53 49 47 41 40 36 29 30 43 49
311 334 345 355 349 350 350 347 16 56 38 356 22 337 343 320 351 4 11 16 15 3 21 51 66 18 39 48 62 62 354 353 338 320 330 337 5 22 39 40 64 64 65 62 58 50 46 40 35 29 31 28 40 39
327 336 353 356 343 345 347 343 58 76 14 0 319 330 350 324 5 25 22 20 29 31 29 39 54 27 16 7 12 353 326 19 338 320 323 359 50 57 58 73 69 67 74 70 66 54 47 40 32 35 35 37 42 26
338 348 350 346 360 8 350 342 359 61 3 288 349 2 35 19 9 27 27 22 10 22 44 44 51 2 44 332 318 330 330 327 26 31 12 4 1 18 34 71 67 79 72 64 57 53 44 34 26 23 38 55 58 36
352 344 341 353 339 344 150 358 344 204 314 357 277 46 358 1 27 23 25 354 43 48 37 43 46 344 339 13 34 32 24 18 9 32 327 21 31 45 49 47 52 48 45 39 39 32 35 27 25 34 48 72 71 66
333 334 328 317 277 9 16 274 180 265 85 243 26 78 38 18 5 6 20 35 39 12 6 29 351 358 38 41 31 37 36 32 25 23 17 29 55 51 47 44 46 39 37 34 35 39 40 35 39 37 39 56 75 70
347 332 306 289 19 38 256 207 1 220 79 307 43 20 3 9 333 18 49 11 5 351 13 21 10 18 49 53 48 39 39 38 26 16 12 48 59 55 55 49 45 50 46 35 45 53 45 43 40 36 32 32 34 44
307 317 319 305 129 264 299 272 246 243 169 150 99 134 293 329 341 71 72 355 325 353 359 354 356 356 18 51 39 31 27 45 37 21 17 56 65 60 56 48 42 46 50 47 52 53 45 38 35 30 25 27 49 63
51 336 87 332 13 358 320 358 278 11 341 349 92 107 225 9 57 58 33 321 326 323 321 340 350 5 48 57 47 39 42 46 48 39 33 36 48 53 42 39 39 39 43 43 51 50 40 32 24 22 39 51 62 74
55 348 70 16 4 18 335 321 322 319 30 48 88 131 142 69 65 54 299 276 282 287 314 339 351 19 30 85 88 57 47 51 53 39 47 43 39 40 42 34 19 18 31 41 59 47 38 25 29 48 54 49 52 59
39 331 332 108 152 297 279 254 270 38 4 356 19 73 75 60 40 294 284 275 267 357 334 337 56 75 74 93 94 83 67 61 58 47 56 47 45 42 38 34 24 21 18 24 52 44 36 39 48 52 58 51 43 45
185 210 216 288 260 203 301 10 46 11 332 315 54 36 75 101 203 245 231 302 329 324 11 91 85 91 84 86 98 82 69 58 55 57 57 48 41 35 28 25 24 20 20 34 51 43 49 49 54 59 60 47 31 26
207 200 174 279 234 228 102 132 147 241 269 50 85 112 169 209 220 239 283 342 77 66 84 102 88 85 87 98 89 82 68 53 47 38 32 8 13 24 25 27 24 23 23 36 58 51 60 57 55 52 46 38 28 25
245 155 194 241 187 161 227 141 136 168 68 124 130 104 103 240 234 271 344 71 72 59 58 110 91 83 85 101 106 94 78 62 52 44 27 360 15 26 26 24 20 16 16 23 55 42 35 39 41 42 44 42 37 33
148 158 231 200 152 164 159 137 148 147 139 165 176 132 159 182 207 262 102 103 88 69 59 90 75 81 86 64 86 136 115 78 64 58 54 36 28 27 23 16 13 13 7 6 32 25 39 51 50 48 46 39 30 23
140 206 161 129 177 145 101 152 171 162 147 121 155 109 109 90 216 224 103 112 94 79 76 110 98 93 85 62 53 124 124 135 107 77 62 44 32 23 14 6 12 19 23 35 42 52 52 47 44 43 43 30 23 15
334 333 349 114 113 178 189 152 170 156 128 147 156 172 188 177 157 171 93 122 119 105 105 109 121 110 90 71 49 140 177 125 160 104 52 27 357 348 355 17 20 21 21 26 34 36 38 37 36 29 23 22 15 7
Height
845 841 836 831 827 822 816 809 805 800 796 791 787 784 780 777 775 773 770 769 770 763 753 751 750 751 750 752 748 742 738 734 736 728 718 712 712 696 684 665 657 668 675 679 671 675 648 611 601 603 598 599 598 600
844 839 834 830 825 819 811 806 803 799 794 789 785 781 778 775 772 770 767 765 764 761 749 745 742 740 738 735 742 741 734 731 729 732 725 712 700 691 685 671 653 670 662 663 669 665 648 630 622 595 585 594 602 604
842 837 832 828 823 814 809 804 800 795 790 786 782 778 774 771 769 767 764 761 759 752 741 735 727 721 722 722 726 736 727 720 724 724 729 720 707 687 679 665 657 653 652 657 652 655 651 643 631 618 604 604 607 607
840 836 830 825 818 812 806 801 794 790 785 780 776 772 769 766 765 762 759 757 756 751 744 722 715 712 709 710 712 714 712 716 717 721 726 723 709 685 670 666 655 648 645 651 656 655 653 647 640 630 620 613 615 617
837 833 827 822 815 808 802 795 790 784 779 774 770 766 763 762 760 755 751 747 747 749 739 721 710 697 696 694 696 703 708 709 715 717 714 706 691 681 667 660 646 650 647 650 658 665 666 657 645 632 628 626 626 623
834 830 824 817 810 805 796 790 784 777 772 767 763 759 755 753 754 752 747 741 739 742 739 724 709 696 691 688 690 693 695 702 705 704 700 690 681 677 665 654 654 648 648 644 651 662 662 654 645 641 639 638 635 634
830 826 821 813 806 799 791 784 778 770 763 758 753 748 744 745 747 748 743 737 737 740 738 724 714 697 687 683 682 687 687 694 697 698 694 690 680 673 660 654 645 644 639 646 651 658 657 652 658 649 646 647 649 644
827 822 817 808 801 794 786 778 772 761 753 748 742 738 738 737 738 736 727 729 734 737 734 727 712 701 690 690 686 684 686 690 696 698 694 687 679 671 663 657 649 643 646 647 655 655 661 663 655 651 647 647 660 661
824 818 813 806 796 789 782 774 766 755 744 740 734 728 730 734 732 728 725 726 728 733 728 724 715 705 692 692 692 692 688 693 694 692 687 688 675 667 662 660 655 651 654 657 658 663 665 664 663 660 652 661 676 673
819 814 808 802 793 785 779 771 763 751 741 737 731 730 732 729 726 725 724 724 727 727 725 723 718 710 704 689 690 694 687 690 691 694 691 686 680 674 671 669 662 662 663 663 666 671 671 671 670 671 673 668 677 677
814 809 803 798 790 780 775 770 761 750 742 740 738 737 733 726 726 725 725 730 729 723 721 716 711 705 697 691 693 690 693 697 698 694 690 692 684 681 676 672 671 671 672 675 677 678 678 678 675 673 670 674 677 677
809 804 799 793 786 778 772 768 759 753 749 747 746 741 734 729 723 720 720 728 729 711 700 695 694 697 693 690 692 694 698 701 687 689 696 701 698 688 682 681 679 678 679 680 681 681 679 680 680 679 680 681 680 680
803 798 793 788 782 776 769 764 758 754 747 744 742 739 736 733 733 724 721 715 704 700 693 687 684 688 691 693 694 689 687 687 689 701 710 707 699 696 691 687 688 687 686 686 686 685 683 683 682 680 679 679 677 677
798 793 788 783 778 772 765 761 755 752 750 751 750 749 745 740 735 731 721 711 696 693 683 682 683 684 688 688 687 689 700 699 703 708 702 701 699 697 695 691 689 690 687 686 683 682 682 682 682 682 683 683 684 683
792 787 782 779 775 769 763 759 755 752 752 754 754 769 758 750 738 724 710 699 691 683 680 682 684 686 691 695 705 704 709 721 728 722 713 708 708 702 699 695 692 690 690 691 690 690 691 689 687 689 691 688 687 685
788 782 780 778 772 766 761 758 755 753 753 754 755 759 752 748 739 726 717 711 701 689 685 690 697 701 712 720 722 728 728 729 724 723 721 719 712 708 705 703 698 696 698 699 697 698 698 698 699 697 693 692 691 689
786 784 781 777 770 765 762 759 758 757 758 761 766 760 758 756 751 741 730 722 711 701 701 706 717 725 727 728 729 737 737 737 732 728 723 721 721 717 715 712 712 709 708 708 708 707 707 705 701 700 701 700 698 697
786 783 782 778 772 766 764 763 762 762 769 772 775 769 763 758 755 746 737 728 721 721 720 727 731 738 739 748 747 748 745 741 737 731 729 724 721 718 717 717 716 717 718 718 717 716 715 713 712 712 709 707 705 705
787 784 782 781 777 774 773 767 768 776 777 776 777 770 766 763 760 754 748 743 738 735 735 742 752 760 763 760 756 753 746 744 742 738 734 728 726 725 723 724 724 724 723 724 724 723 723 722 721 719 717 713 715 714
787 785 783 781 780 778 777 776 772 777 780 781 776 774 772 772 768 763 760 756 753 753 753 765 770 771 770 769 764 759 755 749 745 745 743 736 731 729 729 729 730 730 730 730 729 728 728 728 726 724 722 721 721 721
787 785 783 782 781 780 781 782 782 779 779 780 777 777 779 777 776 775 771 768 766 769 777 779 778 775 770 767 763 761 758 756 755 754 752 748 745 741 740 741 739 738 738 739 739 738 736 736 734 731 731 731 730 729
788 786 784 783 782 781 782 779 782 779 782 781 780 780 784 785 785 783 782 781 784 784 783 781 780 777 773 772 771 769 767 763 760 757 754 752 752 752 752 752 750 750 750 750 749 748 746 745 743 742 741 741 738 735
788 787 785 784 784 790 787 778 781 779 783 782 783 786 788 787 786 783 794 797 794 791 788 785 782 779 778 778 775 773 771 769 768 766 764 762 762 762 762 761 760 758 758 758 757 756 756 754 752 751 749 747 745 743
789 789 787 786 787 793 779 780 776 776 777 781 786 793 793 793 790 793 801 802 799 794 790 787 784 782 780 782 783 781 778 775 775 773 770 769 769 770 768 768 766 765 765 764 762 762 761 759 757 755 752 750 749 749
795 791 792 801 790 788 782 781 778 780 782 778 782 794 797 797 793 799 805 807 802 798 794 790 787 786 787 789 787 786 784 781 780 780 780 778 776 774 772 771 770 769 768 765 765 764 764 762 760 758 757 756 755 755
798 790 796 791 795 794 793 788 782 779 777 777 783 795 796 796 801 808 809 807 803 799 795 793 792 791 791 791 792 791 791 787 784 785 786 783 781 779 778 777 775 772 771 769 767 766 765 764 763 762 761 761 760 759
801 794 794 794 795 794 793 787 782 784 784 784 782 787 793 799 809 811 805 801 800 798 795 793 793 793 794 794 795 795 793 790 789 791 790 787 785 783 781 780 778 777 774 771 769 768 767 766 766 765 764 763 762 760
795 795 796 792 792 789 788 787 789 794 793 790 791 798 800 803 811 807 803 799 797 796 797 796 794 795 795 795 796 796 795 794 793 792 791 790 788 786 784 782 780 778 776 773 771 770 769 768 767 767 766 765 764 762
792 791 792 792 786 784 785 788 792 792 791 791 797 803 806 805 803 801 800 799 798 796 797 797 797 797 796 796 797 796 796 794 793 793 793 793 790 789 787 784 782 780 778 775 774 773 772 771 770 769 767 766 765 763
783 782 787 783 782 785 785 784 790 790 789 791 795 799 801 801 799 799 798 798 798 798 797 797 798 797 797 797 799 799 798 797 795 795 794 794 792 790 788 786 784 782 780 778 777 776 774 773 771 770 769 768 767 765
770 775 776 775 777 778 778 780 784 787 789 791 792 793 796 798 797 798 798 797 797 797 798 799 799 799 798 798 798 799 799 799 798 797 796 795 793 792 790 788 786 784 781 779 778 777 775 774 773 773 771 770 769 767
766 766 770 774 778 776 777 781 784 786 787 791 793 794 796 798 800 797 799 797 797 798 798 798 799 799 799 798 797 797 796 797 798 797 796 795 794 792 791 789 787 785 783 782 780 778 777 776 775 774 773 771 769 767
764 764 763 768 773 775 776 779 781 784 784 787 789 791 792 795 796 796 798 797 797 797 798 798 798 799 799 798 798 797 796 796 796 796 795 794 793 792 791 790 788 786 785 784 782 781 779 778 777 775 774 772 770 768